H1 CPF 2 NER 2021 1 27 9 027 01 glonass134 H2 1407501 9134 40315 2021 1 27 0 0 0 2021 1 30 23 45 0 900 1 1 0 0 0 1 H9 10 0 59241 0.00000 0 16960135.632 -5211527.439 -18284291.512 10 0 59241 900.00000 0 15380810.369 -3447699.975 -20020572.802 10 0 59241 1800.00000 0 13816469.577 -1424828.596 -21366785.582 10 0 59241 2700.00000 0 12322685.818 820691.423 -22296896.385 10 0 59241 3600.00000 0 10948486.088 3242246.191 -22793014.432 10 0 59241 4500.00000 0 9734372.920 5784712.729 -22845724.434 10 0 59241 5400.00000 0 8710726.805 8386529.188 -22454251.720 10 0 59241 6300.00000 0 7896655.477 10982039.108 -21626457.963 10 0 59241 7200.00000 0 7299336.222 13504011.784 -20378669.065 10 0 59241 8100.00000 0 6913876.377 15886234.041 -18735339.976 10 0 59241 9000.00000 0 6723695.338 18066066.206 -16728564.119 10 0 59241 9900.00000 0 6701409.657 19986856.860 -14397437.953 10 0 59241 10800.00000 0 6810181.866 21600117.333 -11787293.656 10 0 59241 11700.00000 0 7005474.631 22867367.109 -8948815.193 10 0 59241 12600.00000 0 7237135.192 23761575.088 -5937055.097 10 0 59241 13500.00000 0 7451721.675 24268138.601 -2810370.875 10 0 59241 14400.00000 0 7594973.060 24385361.169 370698.731 10 0 59241 15300.00000 0 7614318.984 24124410.685 3544596.341 10 0 59241 16200.00000 0 7461324.115 23508761.053 6649925.643 10 0 59241 17100.00000 0 7093964.707 22573141.501 9626626.313 10 0 59241 18000.00000 0 6478642.091 21362037.821 12417122.352 10 0 59241 18900.00000 0 5591848.690 19927808.094 14967422.773 10 0 59241 19800.00000 0 4421416.443 18328491.029 17228154.528 10 0 59241 20700.00000 0 2967294.727 16625397.561 19155508.715 10 0 59241 21600.00000 0 1241823.973 14880585.070 20712082.809 10 0 59241 22500.00000 0 -730508.217 13154318.306 21867603.399 10 0 59241 23400.00000 0 -2913820.482 11502621.777 22599515.874 10 0 59241 24300.00000 0 -5262071.859 9975024.623 22893429.761 10 0 59241 25200.00000 0 -7720728.160 8612591.299 22743410.755 10 0 59241 26100.00000 0 -10228793.944 7446319.988 22152112.943 10 0 59241 27000.00000 0 -12721128.219 6495975.680 21130747.483 10 0 59241 27900.00000 0 -15130949.672 5769407.208 19698886.718 10 0 59241 28800.00000 0 -17392428.709 5262377.652 17884105.741 10 0 59241 29700.00000 0 -19443259.183 4958916.191 15721466.494 10 0 59241 30600.00000 0 -21227102.750 4832177.602 13252852.581 10 0 59241 31500.00000 0 -22695803.124 4845774.034 10526166.302 10 0 59241 32400.00000 0 -23811276.575 4955523.370 7594402.406 10 0 59241 33300.00000 0 -24546998.018 5111540.236 4514616.087 10 0 59241 34200.00000 0 -24889018.727 5260580.617 1346805.490 10 0 59241 35100.00000 0 -24836471.501 5348539.531 -1847268.810 10 0 59241 36000.00000 0 -24401540.953 5322994.149 -5005303.064 10 0 59241 36900.00000 0 -23608899.624 5135682.392 -8065682.840 10 0 59241 37800.00000 0 -22494633.730 4744809.526 -10968702.805 10 0 59241 38700.00000 0 -21104704.507 4117082.635 -13657748.099 10 0 59241 39600.00000 0 -19493011.189 3229384.652 -16080412.413 10 0 59241 40500.00000 0 -17719138.767 2070015.361 -18189529.574 10 0 59241 41400.00000 0 -15845886.970 639445.585 -19944097.607 10 0 59241 42300.00000 0 -13936685.988 -1049447.956 -21310076.783 10 0 59241 43200.00000 0 -12053008.693 -2971677.344 -22261046.306 10 0 59241 44100.00000 0 -10251888.626 -5090955.217 -22778707.516 10 0 59241 45000.00000 0 -8583647.851 -7360989.086 -22853224.812 10 0 59241 45900.00000 0 -7089929.157 -9727203.535 -22483399.071 10 0 59241 46800.00000 0 -5802113.568 -12128817.806 -21676671.643 10 0 59241 47700.00000 0 -4740187.455 -14501191.666 -20448960.361 10 0 59241 48600.00000 0 -3912104.203 -16778341.661 -18824332.182 10 0 59241 49500.00000 0 -3313664.465 -18895523.200 -16834519.984 10 0 59241 50400.00000 0 -2928917.299 -20791771.486 -14518293.928 10 0 59241 51300.00000 0 -2731062.791 -22412296.486 -11920700.269 10 0 59241 52200.00000 0 -2683815.993 -23710633.483 -9092182.742 10 0 59241 53100.00000 0 -2743173.141 -24650461.047 -6087603.789 10 0 59241 54000.00000 0 -2859504.591 -25207012.309 -2965184.452 10 0 59241 54900.00000 0 -2979885.693 -25368022.253 214616.914 10 0 59241 55800.00000 0 -3050567.272 -25134172.944 3390265.825 10 0 59241 56700.00000 0 -3019481.846 -24519019.319 6500331.057 10 0 59241 57600.00000 0 -2838680.469 -23548399.457 9484660.305 10 0 59241 58500.00000 0 -2466598.142 -22259354.340 12285530.319 10 0 59241 59400.00000 0 -1870052.904 -20698602.136 14848750.396 10 0 59241 60300.00000 0 -1025894.698 -18920630.119 17124699.062 10 0 59241 61200.00000 0 77765.442 -16985482.881 19069274.938 10 0 59241 62100.00000 0 1440798.251 -14956337.832 20644744.418 10 0 59241 63000.00000 0 3050804.244 -12896967.516 21820470.587 10 0 59241 63900.00000 0 4883379.268 -10869193.064 22573509.691 10 0 59241 64800.00000 0 6902888.962 -8930433.454 22889063.770 10 0 59241 65700.00000 0 9063722.529 -7131451.525 22760780.366 10 0 59241 66600.00000 0 11311976.346 -5514389.968 22190892.676 10 0 59241 67500.00000 0 13587500.028 -4111178.817 21190196.279 10 0 59241 68400.00000 0 15826222.124 -2942380.988 19777861.272 10 0 59241 69300.00000 0 17962660.334 -2016524.604 17981081.701 10 0 59241 70200.00000 0 19932512.803 -1329950.740 15834567.176 10 0 59241 71100.00000 0 21675222.761 -867183.767 13379884.754 10 0 59241 72000.00000 0 23136408.942 -601809.489 10664662.390 10 0 59241 72900.00000 0 24270059.134 -497824.556 7741668.352 10 0 59241 73800.00000 0 25040393.423 -511400.258 4667783.952 10 0 59241 74700.00000 0 25423317.144 -592985.729 1502889.752 10 0 59241 75600.00000 0 25407400.776 -689660.504 -1691312.370 10 0 59241 76500.00000 0 24994343.954 -747635.181 -4852517.145 10 0 59241 77400.00000 0 24198903.012 -714792.191 -7919048.308 10 0 59241 78300.00000 0 23048284.566 -543156.631 -10831079.582 10 0 59241 79200.00000 0 21581030.782 -191190.037 -13531818.510 10 0 59241 80100.00000 0 19845443.991 374192.340 -15968628.207 10 0 59241 81000.00000 0 17897618.115 1175968.088 -18094063.723 10 0 59241 81900.00000 0 15799161.100 2225789.470 -19866801.872 10 0 59241 82800.00000 0 13614705.555 3523252.895 -21252445.890 10 0 59241 83700.00000 0 11409313.326 5055687.320 -22224189.389 10 0 59241 84600.00000 0 9245883.620 6798470.480 -22763327.329 10 0 59241 85500.00000 0 7182673.549 8715859.254 -22859605.038 10 0 59242 0.00000 0 5271034.359 10762298.769 -22511399.895 10 0 59242 900.00000 0 3553456.973 12884155.010 -21725733.502 10 0 59242 1800.00000 0 2062006.291 15021797.337 -20518115.894 10 0 59242 2700.00000 0 817208.440 17111944.236 -18912225.876 10 0 59242 3600.00000 0 -172566.684 19090173.955 -16939435.226 10 0 59242 4500.00000 0 -911203.437 20893495.545 -14638186.839 10 0 59242 5400.00000 0 -1414418.336 22462873.785 -12053239.650 10 0 59242 6300.00000 0 -1708838.064 23745603.575 -9234795.364 10 0 59242 7200.00000 0 -1830618.449 24697435.885 -6237524.149 10 0 59242 8100.00000 0 -1823664.221 25284367.906 -3119508.047 10 0 59242 9000.00000 0 -1737525.555 25484024.020 58877.796 10 0 59242 9900.00000 0 -1625060.524 25286571.223 3236124.837 10 0 59242 10800.00000 0 -1539961.997 24695131.826 6350770.118 10 0 59242 11700.00000 0 -1534252.872 23725676.957 9342572.602 10 0 59242 12600.00000 0 -1655854.601 22406405.656 12153665.013 10 0 59242 13500.00000 0 -1946330.835 20776635.365 14729660.082 10 0 59242 14400.00000 0 -2438900.668 18885249.529 17020690.930 10 0 59242 15300.00000 0 -3156804.901 16788766.014 18982366.534 10 0 59242 16200.00000 0 -4112094.245 14549105.494 20576624.825 10 0 59242 17100.00000 0 -5304891.225 12231151.056 21772467.734 10 0 59242 18000.00000 0 -6723158.108 9900198.959 22546564.400 10 0 59242 18900.00000 0 -8342982.635 7619404.916 22883711.047 10 0 59242 19800.00000 0 -10129372.033 5447330.654 22777138.292 10 0 59242 20700.00000 0 -12037524.827 3435691.778 22228659.179 10 0 59242 21600.00000 0 -14014530.102 1627399.909 21248653.894 10 0 59242 22500.00000 0 -16001425.865 54980.439 19855889.900 10 0 59242 23400.00000 0 -17935532.646 -1260567.941 18077179.190 10 0 59242 24300.00000 0 -19752966.411 -2310423.835 15946877.464 10 0 59242 25200.00000 0 -21391226.533 -3098075.968 13506233.105 10 0 59242 26100.00000 0 -22791750.462 -3638931.985 10802597.137 10 0 59242 27000.00000 0 -23902327.331 -3959419.148 7888508.381 10 0 59242 27900.00000 0 -24679267.858 -4095614.683 4820671.027 10 0 59242 28800.00000 0 -25089237.586 -4091463.788 1658844.660 10 0 59242 29700.00000 0 -25110674.379 -3996661.495 -1535331.033 10 0 59242 30600.00000 0 -24734728.613 -3864289.411 -4699552.755 10 0 59242 31500.00000 0 -23965684.864 -3748309.240 -7772085.838 10 0 59242 32400.00000 0 -22820846.228 -3701021.569 -10692986.386 10 0 59242 33300.00000 0 -21329885.649 -3770599.936 -13405287.504 10 0 59242 34200.00000 0 -19533691.718 -3998806.970 -15856124.644 10 0 59242 35100.00000 0 -17482758.196 -4418991.379 -17997776.677 10 0 59242 36000.00000 0 -15235186.018 -5054452.147 -19788601.403 10 0 59242 36900.00000 0 -12854382.990 -5917240.204 -21193846.721 10 0 59242 37800.00000 0 -10406558.851 -7007448.687 -22186321.821 10 0 59242 38700.00000 0 -7958121.539 -8313021.798 -22746915.882 10 0 59242 39600.00000 0 -5573084.108 -9810089.902 -22864955.207 10 0 59242 40500.00000 0 -3310590.529 -11463816.138 -22538393.173 10 0 59242 41400.00000 0 -1222662.814 -13229718.271 -21773830.781 10 0 59242 42300.00000 0 647737.865 -15055409.547 -20586368.925 10 0 59242 43200.00000 0 2268257.335 -16882685.080 -18999296.672 10 0 59242 44100.00000 0 3618239.852 -18649866.119 -17043622.848 10 0 59242 45000.00000 0 4689322.025 -20294304.089 -14757461.034 10 0 59242 45900.00000 0 5485507.431 -21754940.028 -12185280.663 10 0 59242 46800.00000 0 6022721.616 -22974813.106 -9377039.122 10 0 59242 47700.00000 0 6327868.714 -23903414.191 -6387211.939 10 0 59242 48600.00000 0 6437431.378 -24498787.225 -3273739.761 10 0 59242 49500.00000 0 6395674.473 -24729291.683 -96912.112 10 0 59242 50400.00000 0 6252529.001 -24574953.549 3081790.810 10 0 59242 51300.00000 0 6061245.782 -24028349.304 6200876.697 10 0 59242 52200.00000 0 5875917.631 -23094986.611 9200018.104 10 0 59242 53100.00000 0 5748973.919 -21793166.141 12021205.992 10 0 59242 54000.00000 0 5728752.406 -20153330.118 14609858.669 10 0 59242 54900.00000 0 5857249.926 -18216924.171 16915865.852 10 0 59242 55800.00000 0 6168146.041 -16034818.879 18894548.688 10 0 59242 56700.00000 0 6685182.615 -13665355.297 20507518.228 10 0 59242 57600.00000 0 7420967.737 -11172094.027 21723416.563 10 0 59242 58500.00000 0 8376255.022 -8621359.576 22518526.749 10 0 59242 59400.00000 0 9539730.040 -6079680.160 22877239.906 10 0 59242 60300.00000 0 10888314.796 -3611227.506 22792370.145 10 0 59242 61200.00000 0 12387979.879 -1275361.690 22265310.485 10 0 59242 62100.00000 0 13995032.923 875618.054 21306025.582 10 0 59242 63000.00000 0 15657832.009 2798423.583 19932879.858 10 0 59242 63900.00000 0 17318854.607 4460348.006 18172302.620 10 0 59242 64800.00000 0 18917037.232 5840390.029 16058294.776 10 0 59242 65700.00000 0 20390288.998 6929884.985 13631784.910 10 0 59242 66600.00000 0 21678073.963 7732615.408 10939845.716 10 0 59242 67500.00000 0 22723953.493 8264395.970 8034784.893 10 0 59242 68400.00000 0 23477980.695 8552149.896 4973127.560 10 0 59242 69300.00000 0 23898844.449 8632515.791 1814510.090 10 0 59242 70200.00000 0 23955670.763 8550044.301 -1379492.476 10 0 59242 71100.00000 0 23629403.395 8355061.945 -4546581.426 10 0 59242 72000.00000 0 22913703.584 8101294.123 -7624966.406 10 0 59242 72900.00000 0 21815329.360 7843350.010 -10554588.589 10 0 59242 73800.00000 0 20353977.370 7634178.133 -13278309.247 10 0 59242 74700.00000 0 18561593.464 7522602.692 -15743038.625 10 0 59242 75600.00000 0 16481181.174 7551047.062 -17900781.680 10 0 59242 76500.00000 0 14165158.811 7753542.531 -19709579.259 10 0 59242 77400.00000 0 11673335.133 8154107.708 -21134325.817 10 0 59242 78300.00000 0 9070589.527 8765567.691 -22147447.816 10 0 59242 79200.00000 0 6424354.737 9588862.928 -22729430.176 10 0 59242 80100.00000 0 3802008.067 10612876.467 -22869181.478 10 0 59242 81000.00000 0 1268280.114 11814786.117 -22564232.173 10 0 59242 81900.00000 0 -1117211.379 13160925.734 -21820763.381 10 0 59242 82800.00000 0 -3302200.786 14608118.418 -20653467.277 10 0 59242 83700.00000 0 -5243695.406 16105424.731 -19085243.195 10 0 59242 84600.00000 0 -6909500.090 17596231.972 -17146736.604 10 0 59242 85500.00000 0 -8279284.670 19020596.475 -14875730.974 10 0 59243 0.00000 0 -9345152.625 20317740.801 -12316405.094 10 0 59243 900.00000 0 -10111690.049 21428601.384 -9518470.360 10 0 59243 1800.00000 0 -10595495.892 22298320.990 -6536205.845 10 0 59243 2700.00000 0 -10824214.957 22878581.445 -3427408.617 10 0 59243 3600.00000 0 -10835116.974 23129681.154 -252280.176 10 0 59243 4500.00000 0 -10673282.104 23022270.390 2927730.252 10 0 59243 5400.00000 0 -10389470.293 22538673.067 6051103.783 10 0 59243 6300.00000 0 -10037764.212 21673740.129 9057429.466 10 0 59243 7200.00000 0 -9673084.728 20435199.178 11888559.467 10 0 59243 8100.00000 0 -9348682.912 18843485.582 14489720.671 10 0 59243 9000.00000 0 -9113713.355 16931061.449 16810562.362 10 0 59243 9900.00000 0 -9010990.115 14741249.800 18806120.755 10 0 59243 10800.00000 0 -9075019.134 12326630.978 20437682.783 10 0 59243 11700.00000 0 -9330389.600 9747066.103 21673533.278 10 0 59243 12600.00000 0 -9790592.113 7067427.728 22489571.541 10 0 59243 13500.00000 0 -10457314.120 4355129.796 22869785.603 10 0 59243 14400.00000 0 -11320243.591 1677557.390 22806574.700 10 0 59243 15300.00000 0 -12357391.062 -900498.708 22300913.002 10 0 59243 16200.00000 0 -13535918.768 -3319297.560 21362350.294 10 0 59243 17100.00000 0 -14813444.515 -5526392.601 20008848.074 10 0 59243 18000.00000 0 -16139767.865 -7478572.116 18266452.488 10 0 59243 18900.00000 0 -17458948.194 -9143414.847 16168808.600 10 0 59243 19800.00000 0 -18711648.804 -10500395.363 13756523.573 10 0 59243 20700.00000 0 -19837649.291 -11541492.290 11076389.652 10 0 59243 21600.00000 0 -20778420.493 -12271273.257 8180480.848 10 0 59243 22500.00000 0 -21479652.786 -12706452.463 5125140.273 10 0 59243 23400.00000 0 -21893629.715 -12874939.203 1969877.880 10 0 59243 24300.00000 0 -21981344.922 -12814417.783 -1223799.350 10 0 59243 25200.00000 0 -21714270.816 -12570519.526 -4393600.847 10 0 59243 26100.00000 0 -21075702.124 -12194665.482 -7477684.177 10 0 59243 27000.00000 0 -20061615.651 -11741672.904 -10415879.204 10 0 59243 27900.00000 0 -18681008.384 -11267228.920 -13150878.901 10 0 59243 28800.00000 0 -16955698.744 -10825340.541 -15629371.675 10 0 59243 29700.00000 0 -14919598.928 -10465871.091 -17803091.669 10 0 59243 30600.00000 0 -12617489.077 -10232269.072 -19629765.502 10 0 59243 31500.00000 0 -10103345.393 -10159586.824 -21073936.409 10 0 59243 32400.00000 0 -7438293.090 -10272873.411 -22107649.784 10 0 59243 33300.00000 0 -4688270.715 -10586009.741 -22710987.320 10 0 59243 34200.00000 0 -1921504.228 -11101034.550 -22872440.289 10 0 59243 35100.00000 0 794103.441 -11807988.798 -22589116.028 10 0 59243 36000.00000 0 3393558.710 -12685283.813 -21866775.075 10 0 59243 36900.00000 0 5817232.461 -13700576.370 -20719699.722 10 0 59243 37800.00000 0 8013083.113 -14812112.619 -19170398.032 10 0 59243 38700.00000 0 9938557.013 -15970483.311 -17249150.282 10 0 59243 39600.00000 0 11562089.262 -17120715.777 -14993407.707 10 0 59243 40500.00000 0 12864145.147 -18204614.371 -12447055.996 10 0 59243 41400.00000 0 13837761.564 -19163251.088 -9659558.236 10 0 59243 42300.00000 0 14488568.496 -19939502.081 -6684994.211 10 0 59243 43200.00000 0 14834292.296 -20480524.203 -3581014.585 10 0 59243 44100.00000 0 14903763.681 -20740068.454 -407729.905 10 0 59243 45000.00000 0 14735473.718 -20680534.088 2773444.490 10 0 59243 45900.00000 0 14375739.518 -20274678.072 5900966.015 10 0 59243 46800.00000 0 13876557.197 -19506908.824 8914342.945 10 0 59243 47700.00000 0 13293232.334 -18374110.342 11755291.190 10 0 59243 48600.00000 0 12681887.089 -16885962.142 14368848.506 10 0 59243 49500.00000 0 12096948.012 -15064740.977 16704425.756 10 0 59243 50400.00000 0 11588719.251 -12944611.592 18716775.911 10 0 59243 51300.00000 0 11201142.306 -10570434.480 20366863.149 10 0 59243 52200.00000 0 10969835.792 -7996138.281 21622616.058 10 0 59243 53100.00000 0 10920497.283 -5282722.368 22459550.861 10 0 59243 54000.00000 0 11067734.547 -2495970.179 22861252.843 10 0 59243 54900.00000 0 11414376.034 296034.079 22819706.391 10 0 59243 55800.00000 0 11951290.790 3025484.327 22335466.560 10 0 59243 56700.00000 0 12657727.142 5627421.803 21417667.743 10 0 59243 57600.00000 0 13502157.914 8042189.134 20083867.743 10 0 59243 58500.00000 0 14443598.779 10217667.907 18359728.565 10 0 59243 59400.00000 0 15433346.275 12111206.784 16278538.240 10 0 59243 60300.00000 0 16417063.953 13691159.545 13880581.131 10 0 59243 61200.00000 0 17337129.826 14937968.049 11212367.438 10 0 59243 62100.00000 0 18135146.488 15844744.089 8325735.683 10 0 59243 63000.00000 0 18754507.585 16417324.942 5276844.954 10 0 59243 63900.00000 0 19142911.119 16673799.730 2125076.570 10 0 59243 64800.00000 0 19254711.685 16643526.453 -1068132.923 10 0 59243 65700.00000 0 19053010.047 16365681.549 -4240503.572 10 0 59243 66600.00000 0 18511389.458 15887404.143 -7330143.376 10 0 59243 67500.00000 0 17615223.094 15261614.937 -10276773.358 10 0 59243 68400.00000 0 16362495.443 14544603.818 -13022920.548 10 0 59243 69300.00000 0 14764101.534 13793490.315 -15515053.714 10 0 59243 70200.00000 0 12843610.486 13063666.410 -17704638.180 10 0 59243 71100.00000 0 10636502.956 12406331.655 -19549088.144 10 0 59243 72000.00000 0 8188914.737 11866226.207 -21012597.240 10 0 59243 72900.00000 0 5555939.725 11479658.371 -22066831.226 10 0 59243 73800.00000 0 2799563.966 11272910.086 -22691469.814 10 0 59243 74700.00000 0 -13682.074 11261087.199 -22874588.002 10 0 59243 75600.00000 0 -2815254.606 11447461.984 -22612870.798 10 0 59243 76500.00000 0 -5537205.390 11823334.196 -21911658.620 10 0 59243 77400.00000 0 -8114760.055 12368414.889 -20784824.001 10 0 59243 78300.00000 0 -10488759.531 13051715.165 -19254483.469 10 0 59243 79200.00000 0 -12607864.510 13832900.907 -17350551.449 10 0 59243 80100.00000 0 -14430433.085 14664055.241 -15110145.945 10 0 59243 81000.00000 0 -15925995.764 15491773.683 -12576858.287 10 0 59243 81900.00000 0 -17076268.977 16259503.388 -9799901.573 10 0 59243 82800.00000 0 -17875667.384 16910028.017 -6833154.588 10 0 59243 83700.00000 0 -18331296.116 17387994.059 -3734119.660 10 0 59243 84600.00000 0 -18462425.573 17642372.916 -562814.327 10 0 59243 85500.00000 0 -18299472.528 17628756.014 2619382.148 10 0 59244 0.00000 0 -17882531.648 17311387.297 5750905.710 10 0 59244 900.00000 0 -17259519.744 16664847.976 8771186.407 10 0 59244 1800.00000 0 -16484010.813 15675324.427 11621806.360 10 0 59244 2700.00000 0 -15612852.649 14341404.056 14247616.794 10 0 59244 3600.00000 0 -14703664.133 12674367.423 16597792.784 10 0 59244 4500.00000 0 -13812317.539 10697962.022 18626806.688 10 0 59244 5400.00000 0 -12990510.409 8447666.251 20295302.475 10 0 59244 6300.00000 0 -12283527.936 5969472.065 21570854.892 10 0 59244 7200.00000 0 -11728289.043 3318234.743 22428599.283 10 0 59244 8100.00000 0 -11351757.772 555655.842 22851720.108 10 0 59244 9000.00000 0 -11169786.795 -2252019.487 22831788.504 10 0 59244 9900.00000 0 -11186442.232 -5036497.512 22368941.632 10 0 59244 10800.00000 0 -11393839.229 -7730021.801 21471899.281 10 0 59244 11700.00000 0 -11772496.751 -10267944.180 20157815.899 10 0 59244 12600.00000 0 -12292198.399 -12591174.887 18451969.202 10 0 59244 13500.00000 0 -12913324.784 -14648410.411 16387289.551 10 0 59244 14400.00000 0 -13588602.908 -16398046.083 14003737.389 10 0 59244 15300.00000 0 -14265199.936 -17809692.920 11347539.298 10 0 59244 16200.00000 0 -14887073.538 -18865234.433 8470296.319 10 0 59244 17100.00000 0 -15397479.393 -19559378.183 5427981.171 10 0 59244 18000.00000 0 -15741528.985 -19899677.993 2279843.864 10 0 59244 18900.00000 0 -15868687.977 -19906025.437 -912752.436 10 0 59244 19800.00000 0 -15735107.441 -19609631.956 -4087541.572 10 0 59244 20700.00000 0 -15305686.987 -19051545.024 -7182585.340 10 0 59244 21600.00000 0 -14555780.121 -18280762.141 -10137499.414 10 0 59244 22500.00000 0 -13472467.510 -17352023.814 -12894648.433 10 0 59244 23400.00000 0 -12055342.558 -16323380.732 -15400285.029 10 0 59244 24300.00000 0 -10316774.800 -15253639.859 -17605609.077 10 0 59244 25200.00000 0 -8281639.205 -14199799.229 -19467725.427 10 0 59244 26100.00000 0 -5986522.571 -13214581.254 -20950480.779 10 0 59244 27000.00000 0 -3478440.522 -12344169.636 -22025163.411 10 0 59244 27900.00000 0 -813119.285 -11626245.628 -22671052.633 10 0 59244 28800.00000 0 1947085.180 -11088406.098 -22875808.132 10 0 59244 29700.00000 0 4735543.320 -10747029.024 -22635692.954 10 0 59244 30600.00000 0 7483884.914 -10606632.676 -21955627.216 10 0 59244 31500.00000 0 10124603.248 -10659753.586 -20849073.014 10 0 59244 32400.00000 0 12593622.790 -10887346.417 -19337754.225 10 0 59244 33300.00000 0 14832724.582 -11259686.887 -17451217.921 10 0 59244 34200.00000 0 16791729.894 -11737737.969 -15226246.995 10 0 59244 35100.00000 0 18430353.247 -12274920.415 -12706136.190 10 0 59244 36000.00000 0 19719649.858 -12819212.066 -9939846.046 10 0 59244 36900.00000 0 20642999.522 -13315487.009 -6981051.476 10 0 59244 37800.00000 0 21196588.263 -13707996.003 -3887103.350 10 0 59244 38700.00000 0 21389369.875 -13942883.996 -717922.895 10 0 59244 39600.00000 0 21242510.808 -13970639.308 2465150.069 10 0 59244 40500.00000 0 20788343.116 -13748372.067 5600533.478 10 0 59244 41400.00000 0 20068870.267 -13241826.719 8627582.082 10 0 59244 42300.00000 0 19133888.818 -12427044.498 11487747.261 10 0 59244 43200.00000 0 18038804.570 -11291606.212 14125696.328 10 0 59244 44100.00000 0 16842234.145 -9835402.891 16490370.812 10 0 59244 45000.00000 0 15603491.611 -8070901.253 18535964.300 10 0 59244 45900.00000 0 14380064.331 -6022891.495 20222802.001 10 0 59244 46800.00000 0 13225182.603 -3727726.039 21518105.872 10 0 59244 47700.00000 0 12185583.889 -1232078.676 22396631.050 10 0 59244 48600.00000 0 11299564.482 1408726.838 22841161.482 10 0 59244 49500.00000 0 10595399.845 4132752.015 22842855.010 10 0 59244 50400.00000 0 10090199.926 6873760.679 22401430.527 10 0 59244 51300.00000 0 9789247.985 9563723.970 21525192.535 10 0 59244 52200.00000 0 9685851.648 12135411.217 20230891.147 10 0 59244 53100.00000 0 9761713.750 14524960.199 18543418.554 10 0 59244 54000.00000 0 9987808.793 16674320.640 16495345.966 10 0 59244 54900.00000 0 10325729.474 18533469.197 14126308.201 10 0 59244 55800.00000 0 10729447.619 20062302.930 11482246.306 10 0 59244 56700.00000 0 11147415.843 21232131.239 8614521.719 10 0 59244 57600.00000 0 11524921.161 22026702.630 5578918.467 10 0 59244 58500.00000 0 11806590.354 22442722.054 2434552.773 10 0 59244 59400.00000 0 11938939.799 22489836.169 -757288.181 10 0 59244 60300.00000 0 11872859.898 22190086.642 -3934354.692 10 0 59244 61200.00000 0 11565926.688 21576854.505 -7034664.994 10 0 59244 62100.00000 0 10984440.324 20693340.750 -9997731.955 10 0 59244 63000.00000 0 10105101.774 19590648.375 -12765760.207 10 0 59244 63900.00000 0 8916254.751 18325548.454 -15284788.415 10 0 59244 64800.00000 0 7418638.738 16958026.312 -17505752.926 10 0 59244 65700.00000 0 5625620.139 15548713.146 -19385450.906 10 0 59244 66600.00000 0 3562891.266 14156313.010 -20887383.548 10 0 59244 67500.00000 0 1267649.651 12835134.728 -21982462.831 10 0 59244 68400.00000 0 -1212707.666 11632833.208 -22649568.577 10 0 59244 69300.00000 0 -3822319.654 10588455.089 -22875945.804 10 0 59244 70200.00000 0 -6498953.568 9730870.046 -22657435.924 10 0 59244 71100.00000 0 -9176366.284 9077652.226 -21998538.722 10 0 59244 72000.00000 0 -11786836.023 8634456.866 -20912305.431 10 0 59244 72900.00000 0 -14263759.285 8394916.025 -19420066.466 10 0 59244 73800.00000 0 -16544205.590 8341055.387 -17551000.357 10 0 59244 74700.00000 0 -18571324.730 8444212.397 -15341553.382 10 0 59244 75600.00000 0 -20296507.884 8666415.050 -12834721.949 10 0 59244 76500.00000 0 -21681214.476 8962161.747 -10079212.139 10 0 59244 77400.00000 0 -22698390.620 9280526.169 -7128493.000 10 0 59244 78300.00000 0 -23333422.165 9567497.920 -4039761.902 10 0 59244 79200.00000 0 -23584584.618 9768460.189 -872841.706 10 0 59244 80100.00000 0 -23462972.917 9830700.308 2310969.292 10 0 59244 81000.00000 0 -22991915.504 9705847.951 5450073.070 10 0 59244 81900.00000 0 -22205898.243 9352138.895 8483751.363 10 0 59244 82800.00000 0 -21149043.690 8736409.653 11353326.962 10 0 59244 83700.00000 0 -19873209.431 7835739.406 14003285.508 10 0 59244 84600.00000 0 -18435784.545 6638670.200 16382337.221 10 0 59244 85500.00000 0 -16897275.541 5145953.742 18444399.100 99